• Processing (Info)

  • MPEC 2023-K73 : 2023 KQ

    The following Minor Planet Electronic Circular may be linked-to from your own Web pages, but must not otherwise be redistributed electronically.

    A form allowing access to any MPEC is at the bottom of this page.


    Read MPEC 2023-K72 Read MPEC 2023-K74


    M.P.E.C. 2023-K73                                  Issued 2023 May 21, 13:46 UT
    
         The Minor Planet Electronic Circulars contain information on unusual
             minor planets, routine data on comets and natural satellites,
             and occasional editorial announcements.  They are published
        on behalf of Division F of the International Astronomical Union by the
              Minor Planet Center, Smithsonian Astrophysical Observatory,
                              Cambridge, MA 02138, U.S.A.
    			  
                 Prepared using the Tamkin Foundation Computer Network
    
                                  MPC@CFA.HARVARD.EDU
                URL https://www.minorplanetcenter.net/    ISSN 1523-6714
    
                                     2023 KQ                                 
    
    
    Observations:
         K23K00Q* C2023 05 19.90394314 30 22.133-28 49 53.18         19.23cVEK073M22
         K23K00Q  C2023 05 19.90678814 30 19.824-28 48 58.90         18.77cVEK073M22
         K23K00Q  C2023 05 19.91330014 30 14.616-28 46 55.38         18.21cVEK073M22
         K23K00Q  C2023 05 19.92342614 30 06.514-28 43 42.85         18.59cVEK073M22
         K23K00Q KC2023 05 20.24076 14 26 33.850-27 07 07.64         18.1 GVEK073U52
         K23K00Q KC2023 05 20.24285 14 26 32.316-27 06 27.04         18.5 GVEK073U52
         K23K00Q KC2023 05 20.24493 14 26 30.612-27 05 49.20         17.6 GVEK073U52
         K23K00Q  C2023 05 20.27647 14 26 04.96 -26 55 30.0          18.52RUEK073I41
         K23K00Q  C2023 05 20.27681 14 26 04.63 -26 55 22.7          18.52RUEK073I41
         K23K00Q  C2023 05 20.27741 14 26 04.07 -26 55 10.3          18.69RUEK073I41
         K23K00Q  C2023 05 20.27776 14 26 03.87 -26 55 03.7          18.69RUEK073I41
         K23K00Q KC2023 05 20.34399314 25 10.704-26 33 27.97         18.52GVEK073I52
         K23K00Q KC2023 05 20.34451214 25 10.319-26 33 17.57         18.29GVEK073I52
         K23K00Q KC2023 05 20.34503314 25 09.916-26 33 07.60         18.41GVEK073I52
         K23K00Q KC2023 05 20.34555514 25 09.505-26 32 57.16         18.33GVEK073I52
         K23K00Q KC2023 05 20.44705 14 24 16.40 -25 56 12.2          18.5 VqEK073E23
         K23K00Q KC2023 05 20.46094 14 24 05.74 -25 51 45.2          18.7 VqEK073E23
         K23K00Q KC2023 05 20.47483 14 23 55.01 -25 47 17.7          18.7 VqEK073E23
         K23K00Q KC2023 05 20.73133 14 21 12.69 -24 23 38.8          18.6 GVEK073M21
         K23K00Q KC2023 05 20.74326 14 21 03.99 -24 19 50.1                VEK073M21
         K23K00Q KC2023 05 20.94745614 18 34.565-23 17 10.68         18.1 GVEK073J95
         K23K00Q KC2023 05 20.94985414 18 32.830-23 16 22.84         18.4 GVEK073J95
         K23K00Q KC2023 05 20.95259814 18 30.797-23 15 28.30         18.8 GVEK073J95
         K23K00Q KB2023 05 21.14768414 16 14.803-22 06 38.30         18.4 GXEK073859
         K23K00Q KB2023 05 21.15035514 16 12.808-22 05 43.11         18.4 GXEK073859
         K23K00Q KB2023 05 21.15294914 16 10.934-22 04 50.67         18.4 GXEK073859
         K23K00Q KC2023 05 21.16445114 16 14.53 -22 04 48.9          18.4 VuEK073H21
         K23K00Q KC2023 05 21.16639014 16 13.10 -22 04 10.4          18.5 VuEK073H21
         K23K00Q KC2023 05 21.16832914 16 11.67 -22 03 31.7          18.8 VuEK073H21
         K23K00Q KC2023 05 21.17026914 16 10.24 -22 02 52.8          18.9 VuEK073H21
         K23K00Q KC2023 05 21.17220814 16 08.79 -22 02 14.1          18.9 VuEK073H21
         K23K00Q KC2023 05 21.27009 14 15 05.227-21 29 38.76         19.3 GVEK073U52
         K23K00Q KC2023 05 21.27215 14 15 03.686-21 28 57.25         19.0 GVEK073U52
         K23K00Q KC2023 05 21.27421 14 15 02.210-21 28 16.18         19.1 GVEK073U52
    
    Observer details:
    859 Wykrota Observatory-CEAMIG.  Observer C. Jacques.  0.45-m f/2.9 reflector
        + CMO.
    E23 Arcadia.  Observer A. Hidas.  0.35-m f/1.9 reflector + CCD.
    H21 Astronomical Research Observatory, Westfield.  Observer R. Holmes.
        Measurers T. Linder, R. Holmes, L. Horn.  0.81-m f/4.0 astrograph + CCD.
    I41 Palomar Mountain--ZTF.  Observers K. Venkataramani, T. Prince, G. Helou,
        Q.-Z. Ye, D. Kulkarni, V. Swain, C. Y. Hsu, Y. Cheng.  Measurers F. Masci,
        D. Shupe, K. Venkataramani, Q.-Z. Ye.  1.2-m f/2.44 Oschin-Schmidt + CCD.
    I52 Steward Observatory, Mt. Lemmon Station.  Observer J. B. Fazekas.
        Measurers E. J. Christensen, D. Fay, J. B. Fazekas, D. C. Fuls, A. R.
        Gibbs, A. D. Grauer, H. Groeller, J. K. Hogan, R. A. Kowalski, S. M.
        Larson, G. J. Leonard, D. Rankin, R. L. Seaman, A. Serrano, F. C. Shelly,
        K. W. Wierzchos.  1.0-m prime focus + CCD.
    J95 Great Shefford.  Observer P. Birtwhistle.  0.41-m f/6.3 Schmidt-Cassegrain
        + CCD.
    M21 Schiaparelli Southern Observatory, Hakos.  Observers A. Aletti, F.
        Bellini, L. Buzzi, G. Galli.  Measurer L. Buzzi.  0.36-m f/8.4 reflector +
        CCD.
    M22 ATLAS South Africa, Sutherland.  Observers L. Denneau, R. Siverd, J.
        Tonry, H. Weiland.  Measurers L. Denneau, N. Erasmus, A. Fitzsimmons, A.
        Lawrence, J. Robinson, R. Siverd, J. Tonry, H. Weiland.  0.5-m Reflector +
        CCD.
    U52 Shasta Valley Observatory, Grenada.  Observers J. E. Rogers, B. Hausler,
        B. Haeusler.  Measurers J. E. Rogers, D. Parrott.  0.30-m f/5.2 0.30-m
        Helin Telescope + CCD.
    
    Orbital elements:
    2023 KQ                                                  Earth MOID = 0.0274 AU
    Epoch 2023 Feb. 25.0 TT = JDT 2460000.5                 Bell                    
    M  92.32476              (2000.0)            P               Q                  
    n   1.24194045     Peri.  166.76080     +0.67748611     -0.71858137             
    a   0.8571738      Node   240.33599     +0.65731085     +0.68727721             
    e   0.2258566      Incl.   10.41027     +0.33008334     +0.10625841             
    P   0.79           H   24.96          G   0.15           U   7                  
    Residuals in seconds of arc
    230519 M22  0.1+  0.4-    230520 I52  0.3-  0.2+    230521 859  0.2-  0.0
    230519 M22  0.3-  0.0     230520 I52  0.3-  0.1-    230521 859  0.3+  0.2-
    230519 M22  0.3-  0.1+    230520 I52  0.5-  0.1+    230521 H21  0.0   0.0
    230519 M22  0.5-  0.3+    230520 E23  0.5-  0.3+    230521 H21  0.0   0.2-
    230520 U52  0.6-  0.5+    230520 E23  0.4-  0.4+    230521 H21  0.1+  0.2-
    230520 U52  0.4+  1.4+    230520 E23  0.7-  0.2+    230521 H21  0.1+  0.1-
    230520 U52  0.8-  0.5-    230520 M21  0.4-  0.1-    230521 H21  0.1-  0.1-
    230520 I41 (2.3+  1.2-)   230520 M21  0.7-  0.4-    230521 U52  0.2-  0.5-
    230520 I41  1.5+  0.4-    230520 J95  0.4-  0.2-    230521 U52  0.7-  0.3-
    230520 I41  0.3+  0.4+    230520 J95  0.1-  0.0     230521 U52  0.3-  0.5-
    230520 I41  1.3+  0.2+    230520 J95  0.5-  0.0
    230520 I52  0.4-  0.0     230521 859  0.0   0.9-
    
    Ephemeris:
    2023 KQ                  a,e,i = 0.86, 0.23, 10                  q = 0.6636
    Date    TT    R. A. (2000) Decl.     Delta      r    Elong.  Phase     V
    2023 04 21    19 04 22.5 -65 56 10   0.1206  1.0434   105.5    68.1    22.9
    ...
    2023 05 06    17 31 21.1 -63 16 59   0.07013 1.0507   125.4    51.5    21.2
    ...
    2023 05 14    15 48 10.5 -52 04 58   0.04623 1.0491   145.9    32.7    19.8
    ...
    2023 05 20    14 29 17.2 -28 20 08   0.03542 1.0453   160.8    18.5    18.8
    2023 05 21    14 18 01.2 -22 56 00   0.03476 1.0444   158.7    20.6    18.8
    2023 05 22    14 07 25.9 -17 20 28   0.03451 1.0435   154.9    24.3    18.9
    ...
    2023 05 28    13 17 32.5 +12 51 37   0.04091 1.0368   124.2    53.9    20.1
    ...
    2023 06 05    12 37 50.8 +34 03 22   0.06144 1.0245    97.7    78.9    21.7
    ...
    2023 06 20    11 57 55.6 +48 03 56   0.1070  0.9916    73.8   100.3    23.7
    
    M. P. C. Staff               (C) Copyright 2023 MPC           M.P.E.C. 2023-K73
    


    Read MPEC 2023-K72 Read MPEC 2023-K74


    MPEC number:

    Enter an MPEC number in one of the following forms:

    • 1997-B01 (the full form)
    • J97B01 (the packed version of the full form)
    • B01 (the abbreviated form)